Time,TemperatureF,DewpointF,PressureIn,WindDirection,WindDirectionDegrees,WindSpeedMPH,WindSpeedGustMPH,Humidity,HourlyPrecipIn,Conditions,Clouds,dailyrainin,SoftwareType,DateUTC
2013-03-23 00:00:00,42.2,37.1,30.04,ENE,59,0.0,1.0,82,0.00,OVC,,0.00,WeatherDisplay:10.37,2013-03-23 04:00:00,
2013-03-23 00:10:00,42.0,37.8,30.04,ENE,59,0.0,1.0,85,0.00,OVC,,0.00,WeatherDisplay:10.37,2013-03-23 04:10:00,
2013-03-23 00:20:00,41.8,37.0,30.04,ENE,59,0.0,0.0,83,0.00,OVC,,0.00,WeatherDisplay:10.37,2013-03-23 04:20:00,
2013-03-23 00:30:00,41.8,37.3,30.04,ENE,59,0.0,1.0,84,0.00,OVC,,0.00,WeatherDisplay:10.37,2013-03-23 04:30:00,
2013-03-23 00:40:00,41.8,37.6,30.03,ENE,59,0.0,1.0,85,0.00,OVC,,0.00,WeatherDisplay:10.37,2013-03-23 04:40:00,
2013-03-23 00:50:00,41.8,37.6,30.04,ENE,59,0.0,1.0,85,0.00,OVC,,0.00,WeatherDisplay:10.37,2013-03-23 04:50:00,
2013-03-23 01:00:00,42.0,37.2,30.04,ENE,59,0.0,2.0,83,0.00,OVC,,0.00,WeatherDisplay:10.37,2013-03-23 05:00:00,
2013-03-23 01:10:00,42.2,37.1,30.03,ENE,59,0.0,0.0,82,0.00,OVC,,0.00,WeatherDisplay:10.37,2013-03-23 05:10:00,
2013-03-23 01:20:00,42.2,36.2,30.03,ENE,59,0.0,0.0,79,0.00,OVC,,0.00,WeatherDisplay:10.37,2013-03-23 05:20:00,
2013-03-23 01:30:00,42.2,35.5,30.03,ENE,59,0.0,0.0,77,0.00,OVC,,0.00,WeatherDisplay:10.37,2013-03-23 05:30:00,
2013-03-23 01:40:00,42.3,36.3,30.03,ENE,59,0.0,0.0,79,0.00,OVC,,0.00,WeatherDisplay:10.37,2013-03-23 05:40:00,
2013-03-23 01:50:00,42.5,36.8,30.02,ENE,59,0.0,0.0,80,0.00,OVC,,0.00,WeatherDisplay:10.37,2013-03-23 05:50:00,
2013-03-23 02:00:00,42.6,36.8,30.02,ENE,59,0.0,0.0,80,0.00,OVC,,0.00,WeatherDisplay:10.37,2013-03-23 06:00:00,
2013-03-23 02:10:00,42.6,36.9,30.03,ENE,59,0.0,0.0,80,0.00,OVC,,0.00,WeatherDisplay:10.37,2013-03-23 06:10:00,
2013-03-23 02:20:00,42.8,37.4,30.01,ENE,59,0.0,1.0,81,0.00,OVC,,0.00,WeatherDisplay:10.37,2013-03-23 06:20:00,
2013-03-23 02:30:00,42.8,37.4,30.01,ENE,59,0.0,0.0,81,0.00,OVC,,0.00,WeatherDisplay:10.37,2013-03-23 06:30:00,
2013-03-23 02:40:00,42.8,36.7,30.01,ENE,59,0.0,0.0,79,0.00,OVC,,0.00,WeatherDisplay:10.37,2013-03-23 06:40:00,
2013-03-23 02:50:00,42.8,36.4,30.01,ENE,59,0.0,0.0,78,0.00,OVC,,0.00,WeatherDisplay:10.37,2013-03-23 06:50:00,
2013-03-23 03:00:00,42.9,37.8,30.01,ENE,59,1.0,2.0,82,0.00,OVC,,0.00,WeatherDisplay:10.37,2013-03-23 07:00:00,
2013-03-23 03:10:00,42.8,37.7,30.01,ENE,59,0.0,2.0,82,0.00,OVC,,0.00,WeatherDisplay:10.37,2013-03-23 07:10:00,
2013-03-23 03:20:00,42.3,37.5,30.00,ENE,59,0.0,0.0,83,0.01,RA,,0.01,WeatherDisplay:10.37,2013-03-23 07:20:00,
2013-03-23 03:30:00,42.1,37.9,29.99,ENE,59,0.0,0.0,85,0.00,OVC,,0.01,WeatherDisplay:10.37,2013-03-23 07:30:00,
2013-03-23 03:40:00,41.9,38.3,29.99,ENE,59,0.0,1.0,87,0.00,OVC,,0.01,WeatherDisplay:10.37,2013-03-23 07:40:00,
2013-03-23 03:50:00,42.0,38.7,29.99,ENE,67,0.0,4.0,88,0.00,OVC,,0.01,WeatherDisplay:10.37,2013-03-23 07:50:00,
2013-03-23 04:00:00,41.9,38.0,29.98,ENE,68,0.0,1.0,86,0.00,OVC,,0.01,WeatherDisplay:10.37,2013-03-23 08:00:00,
2013-03-23 04:10:00,41.9,38.3,29.98,ENE,68,0.0,2.0,87,0.00,-RA,,0.01,WeatherDisplay:10.37,2013-03-23 08:10:00,
2013-03-23 04:20:00,41.8,38.8,29.98,ENE,68,0.0,1.0,89,0.02,-RA,,0.03,WeatherDisplay:10.37,2013-03-23 08:20:00,
2013-03-23 04:30:00,41.5,38.8,30.02,West,265,1.0,8.0,90,0.03,-RA,,0.06,WeatherDisplay:10.37,2013-03-23 08:30:00,
2013-03-23 04:40:00,41.5,38.8,29.98,SSW,192,1.0,8.0,90,0.03, +RA,,0.09,WeatherDisplay:10.37,2013-03-23 08:40:00,
2013-03-23 04:50:00,41.3,38.9,29.97,South,175,0.0,4.0,91,0.05,-RA,,0.14,WeatherDisplay:10.37,2013-03-23 08:50:00,
2013-03-23 05:00:00,41.1,39.0,29.95,South,180,0.0,1.0,92,0.01,-RA,,0.15,WeatherDisplay:10.37,2013-03-23 09:00:00,
2013-03-23 05:10:00,40.9,38.8,29.97,South,180,1.0,2.0,92,0.00,OVC,,0.15,WeatherDisplay:10.37,2013-03-23 09:10:00,
2013-03-23 05:20:00,40.9,39.0,29.98,South,180,0.0,2.0,93,0.00,OVC,,0.15,WeatherDisplay:10.37,2013-03-23 09:20:00,
2013-03-23 05:30:00,41.0,39.4,29.96,South,180,0.0,1.0,94,0.00,OVC,,0.15,WeatherDisplay:10.37,2013-03-23 09:30:00,
2013-03-23 05:40:00,41.1,39.5,29.96,South,179,0.0,2.0,94,0.01,-RA,,0.16,WeatherDisplay:10.37,2013-03-23 09:40:00,
2013-03-23 05:50:00,41.1,39.5,29.98,SSE,148,0.0,4.0,94,0.00,-RA,,0.16,WeatherDisplay:10.37,2013-03-23 09:50:00,
2013-03-23 06:00:00,41.0,39.4,29.98,ENE,73,2.0,4.0,94,0.00,-RA,,0.16,WeatherDisplay:10.37,2013-03-23 10:00:00,
2013-03-23 06:10:00,40.7,39.1,29.98,NE,46,1.0,3.0,94,0.00,-RA,,0.16,WeatherDisplay:10.37,2013-03-23 10:10:00,
2013-03-23 06:20:00,40.3,38.7,29.98,NE,44,1.0,4.0,94,0.00,-RA,,0.16,WeatherDisplay:10.37,2013-03-23 10:20:00,
2013-03-23 06:30:00,40.2,38.6,29.99,NE,48,1.0,5.0,94,0.00,-RA,,0.16,WeatherDisplay:10.37,2013-03-23 10:30:00,
2013-03-23 06:40:00,40.2,38.6,29.99,NE,49,0.0,2.0,94,0.00,OVC,,0.16,WeatherDisplay:10.37,2013-03-23 10:40:00,
2013-03-23 06:50:00,40.2,38.6,30.01,NE,49,0.0,1.0,94,0.01,RA,,0.17,WeatherDisplay:10.37,2013-03-23 10:50:00,
2013-03-23 07:00:00,40.3,38.8,30.00,NE,49,0.0,1.0,94,0.00,OVC,,0.17,WeatherDisplay:10.37,2013-03-23 11:00:00,
2013-03-23 07:10:00,40.4,38.8,30.00,NE,49,0.0,2.0,94,0.00,-RA,,0.17,WeatherDisplay:10.37,2013-03-23 11:10:00,
2013-03-23 07:20:00,40.3,38.7,30.00,NE,49,2.0,4.0,94,0.01,-RA,,0.18,WeatherDisplay:10.37,2013-03-23 11:20:00,
2013-03-23 07:30:00,40.2,38.6,30.02,NE,49,0.0,1.0,94,0.00,-RA,,0.18,WeatherDisplay:10.37,2013-03-23 11:30:00,
2013-03-23 07:40:00,40.2,38.6,30.01,NE,49,1.0,2.0,94,0.03,RA,,0.22,WeatherDisplay:10.37,2013-03-23 11:40:00,
2013-03-23 07:50:00,40.3,38.7,30.01,NE,49,0.0,2.0,94,0.03,RA,,0.24,WeatherDisplay:10.37,2013-03-23 11:50:00,
2013-03-23 08:00:00,40.1,38.5,30.01,NE,49,0.0,2.0,94,0.02,RA,,0.26,WeatherDisplay:10.37,2013-03-23 12:00:00,
2013-03-23 08:10:00,40.1,38.5,30.00,NE,49,0.0,1.0,94,0.00,OVC,,0.26,WeatherDisplay:10.37,2013-03-23 12:10:00,
2013-03-23 08:20:00,40.2,38.6,29.99,SSE,168,5.0,6.0,94,0.01,RA,,0.27,WeatherDisplay:10.37,2013-03-23 12:20:00,
2013-03-23 08:30:00,40.1,38.5,30.00,South,188,0.0,5.0,94,0.00,OVC,,0.27,WeatherDisplay:10.37,2013-03-23 12:30:00,
2013-03-23 08:40:00,40.2,38.9,30.00,South,188,0.0,1.0,95,0.00,-RA,,0.27,WeatherDisplay:10.37,2013-03-23 12:40:00,
2013-03-23 08:50:00,40.3,39.0,30.00,South,188,1.0,2.0,95,0.01,-RA,,0.28,WeatherDisplay:10.37,2013-03-23 12:50:00,
2013-03-23 09:00:00,40.3,39.0,30.02,NNE,31,0.0,5.0,95,0.01,-RA,,0.29,WeatherDisplay:10.37,2013-03-23 13:00:00,
2013-03-23 09:10:00,40.4,39.1,30.03,NNE,28,0.0,1.0,95,0.00,-RA,,0.29,WeatherDisplay:10.37,2013-03-23 13:10:00,
2013-03-23 09:20:00,40.6,39.3,30.02,NE,36,0.0,1.0,95,0.00,-RA,,0.29,WeatherDisplay:10.37,2013-03-23 13:20:00,
2013-03-23 09:30:00,40.8,39.4,30.01,NE,44,0.0,1.0,95,0.00,-RA,,0.29,WeatherDisplay:10.37,2013-03-23 13:30:00,
2013-03-23 09:40:00,41.0,39.7,30.00,NE,44,0.0,1.0,95,0.00,-RA,,0.29,WeatherDisplay:10.37,2013-03-23 13:40:00,
2013-03-23 09:50:00,41.0,39.7,30.00,NE,43,2.0,3.0,95,0.00,OVC,,0.29,WeatherDisplay:10.37,2013-03-23 13:50:00,
2013-03-23 10:00:00,41.2,39.9,30.00,NE,40,1.0,4.0,95,0.00,OVC,,0.29,WeatherDisplay:10.37,2013-03-23 14:00:00,
2013-03-23 10:10:00,41.8,40.4,30.00,NE,38,1.0,4.0,95,0.00,OVC,,0.29,WeatherDisplay:10.37,2013-03-23 14:10:00,
2013-03-23 10:20:00,42.0,40.7,30.00,NE,38,2.0,4.0,95,0.00,OVC,,0.29,WeatherDisplay:10.37,2013-03-23 14:20:00,
2013-03-23 10:30:00,42.0,40.7,30.00,NE,50,2.0,4.0,95,0.00,OVC,,0.29,WeatherDisplay:10.37,2013-03-23 14:30:00,
2013-03-23 10:40:00,42.2,40.9,30.01,ENE,61,1.0,3.0,95,0.00,OVC,,0.29,WeatherDisplay:10.37,2013-03-23 14:40:00,
2013-03-23 10:50:00,42.3,40.7,30.00,ENE,61,2.0,3.0,94,0.00,OVC,,0.29,WeatherDisplay:10.37,2013-03-23 14:50:00,
2013-03-23 11:00:00,42.7,41.4,30.00,ENE,61,2.0,3.0,95,0.00,OVC,,0.29,WeatherDisplay:10.37,2013-03-23 15:00:00,
2013-03-23 11:10:00,43.1,41.5,30.01,NE,52,2.0,4.0,94,0.00,OVC,,0.29,WeatherDisplay:10.37,2013-03-23 15:10:00,
2013-03-23 11:20:00,43.4,41.8,30.01,NE,45,0.0,3.0,94,0.00,OVC,,0.29,WeatherDisplay:10.37,2013-03-23 15:20:00,
2013-03-23 11:30:00,43.6,42.0,30.00,NE,45,0.0,2.0,94,0.00,OVC,,0.29,WeatherDisplay:10.37,2013-03-23 15:30:00,
2013-03-23 11:40:00,43.8,42.2,30.00,NE,45,1.0,3.0,94,0.00,OVC,,0.29,WeatherDisplay:10.37,2013-03-23 15:40:00,
2013-03-23 11:50:00,44.1,42.2,30.00,NE,45,1.0,2.0,93,0.00,OVC,,0.29,WeatherDisplay:10.37,2013-03-23 15:50:00,
2013-03-23 12:00:00,44.3,42.4,30.00,NE,45,1.0,2.0,93,0.00,OVC,,0.29,WeatherDisplay:10.37,2013-03-23 16:00:00,
2013-03-23 12:10:00,44.7,42.8,30.00,NE,45,1.0,3.0,93,0.00,OVC,,0.29,WeatherDisplay:10.37,2013-03-23 16:10:00,
2013-03-23 12:20:00,45.0,43.1,30.00,NE,47,2.0,5.0,93,0.00,OVC,,0.29,WeatherDisplay:10.37,2013-03-23 16:20:00,
2013-03-23 12:30:00,45.2,43.0,30.00,NE,49,2.0,5.0,92,0.00,OVC,,0.29,WeatherDisplay:10.37,2013-03-23 16:30:00,
2013-03-23 12:40:00,45.4,42.9,29.99,NE,48,2.0,5.0,91,0.00,OVC,,0.29,WeatherDisplay:10.37,2013-03-23 16:40:00,
2013-03-23 12:50:00,45.7,43.5,29.99,NE,41,1.0,5.0,92,0.00,OVC,,0.29,WeatherDisplay:10.37,2013-03-23 16:50:00,
2013-03-23 13:00:00,46.0,43.5,29.98,NE,40,2.0,4.0,91,0.00,OVC,,0.29,WeatherDisplay:10.37,2013-03-23 17:00:00,
2013-03-23 13:10:00,46.3,43.5,29.98,NE,40,3.0,4.0,90,0.00,OVC,,0.29,WeatherDisplay:10.37,2013-03-23 17:10:00,
2013-03-23 13:20:00,46.4,43.7,29.98,ENE,62,2.0,4.0,90,0.00,OVC,,0.29,WeatherDisplay:10.37,2013-03-23 17:20:00,
2013-03-23 13:30:00,46.5,44.1,29.97,NE,49,2.0,4.0,91,0.00,OVC,,0.29,WeatherDisplay:10.37,2013-03-23 17:30:00,
2013-03-23 13:40:00,46.5,44.0,29.97,NE,43,2.0,5.0,91,0.00,OVC,,0.29,WeatherDisplay:10.37,2013-03-23 17:40:00,
2013-03-23 13:50:00,46.5,44.0,29.96,NE,49,2.0,4.0,91,0.00,OVC,,0.29,WeatherDisplay:10.37,2013-03-23 17:50:00,
2013-03-23 14:00:00,46.7,44.5,29.95,NE,45,2.0,5.0,92,0.00,OVC,,0.29,WeatherDisplay:10.37,2013-03-23 18:00:00,
2013-03-23 14:10:00,46.9,44.1,29.95,NE,43,3.0,6.0,90,0.00,OVC,,0.29,WeatherDisplay:10.37,2013-03-23 18:10:00,
2013-03-23 14:20:00,47.4,44.6,29.95,NE,39,3.0,5.0,90,0.00,OVC,,0.29,WeatherDisplay:10.37,2013-03-23 18:20:00,
2013-03-23 14:30:00,47.9,45.1,29.95,NNE,23,1.0,5.0,90,0.00,OVC,,0.29,WeatherDisplay:10.37,2013-03-23 18:30:00,
2013-03-23 14:40:00,48.1,44.7,29.94,NNE,33,3.0,5.0,88,0.00,OVC,,0.29,WeatherDisplay:10.37,2013-03-23 18:40:00,
2013-03-23 14:50:00,48.2,44.8,29.94,NE,39,5.0,7.0,88,0.00,OVC,,0.29,WeatherDisplay:10.37,2013-03-23 18:50:00,
2013-03-23 15:00:00,48.1,44.7,29.93,NE,43,2.0,6.0,88,0.00,OVC,,0.29,WeatherDisplay:10.37,2013-03-23 19:00:00,
2013-03-23 15:10:00,48.7,45.6,29.93,NE,48,3.0,8.0,89,0.00,OVC,,0.29,WeatherDisplay:10.37,2013-03-23 19:10:00,
2013-03-23 15:20:00,48.9,45.2,29.92,NE,43,0.0,6.0,87,0.00,OVC,,0.29,WeatherDisplay:10.37,2013-03-23 19:20:00,
2013-03-23 15:30:00,49.2,45.5,29.92,NE,39,3.0,6.0,87,0.00,OVC,,0.29,WeatherDisplay:10.37,2013-03-23 19:30:00,
2013-03-23 15:40:00,49.5,45.8,29.92,NE,44,2.0,5.0,87,0.00,OVC,,0.29,WeatherDisplay:10.37,2013-03-23 19:40:00,
2013-03-23 15:50:00,49.9,46.2,29.92,NE,44,0.0,4.0,87,0.00,OVC,,0.29,WeatherDisplay:10.37,2013-03-23 19:50:00,
2013-03-23 16:00:00,49.9,45.9,29.91,NE,44,1.0,6.0,86,0.00,OVC,,0.29,WeatherDisplay:10.37,2013-03-23 20:00:00,
2013-03-23 16:10:00,49.9,46.2,29.91,NE,44,2.0,4.0,87,0.00,OVC,,0.29,WeatherDisplay:10.37,2013-03-23 20:10:00,
2013-03-23 16:20:00,50.1,46.1,29.91,NE,45,1.0,5.0,86,0.00,OVC,,0.29,WeatherDisplay:10.37,2013-03-23 20:20:00,
2013-03-23 16:30:00,50.2,46.2,29.91,NE,44,2.0,5.0,86,0.00,OVC,,0.29,WeatherDisplay:10.37,2013-03-23 20:30:00,
2013-03-23 16:40:00,50.4,46.1,29.89,NE,45,2.0,5.0,85,0.00,OVC,,0.29,WeatherDisplay:10.37,2013-03-23 20:40:00,
2013-03-23 16:50:00,51.0,46.6,29.89,NE,44,5.0,8.0,85,0.00,OVC,,0.29,WeatherDisplay:10.37,2013-03-23 20:50:00,
2013-03-23 17:00:00,50.9,46.2,29.90,NE,39,2.0,7.0,84,0.00,OVC,,0.29,WeatherDisplay:10.37,2013-03-23 21:00:00,
2013-03-23 17:10:00,51.2,46.2,29.89,NE,40,3.0,8.0,83,0.00,OVC,,0.29,WeatherDisplay:10.37,2013-03-23 21:10:00,
2013-03-23 17:20:00,51.3,46.3,29.90,NE,40,3.0,7.0,83,0.00,OVC,,0.29,WeatherDisplay:10.37,2013-03-23 21:20:00,
2013-03-23 17:30:00,51.5,46.2,29.90,NE,40,3.0,7.0,82,0.00,OVC,,0.29,WeatherDisplay:10.37,2013-03-23 21:30:00,
2013-03-23 17:40:00,51.7,46.4,29.90,NE,38,1.0,5.0,82,0.00,OVC,,0.29,WeatherDisplay:10.37,2013-03-23 21:40:00,
2013-03-23 17:50:00,51.8,46.5,29.90,NE,36,3.0,6.0,82,0.00,OVC,,0.29,WeatherDisplay:10.37,2013-03-23 21:50:00,
2013-03-23 18:00:00,51.9,46.9,29.90,NE,40,1.0,5.0,83,0.00,OVC,,0.29,WeatherDisplay:10.37,2013-03-23 22:00:00,
2013-03-23 18:10:00,52.2,46.9,29.91,NE,35,1.0,6.0,82,0.00,OVC,,0.29,WeatherDisplay:10.37,2013-03-23 22:10:00,
2013-03-23 18:20:00,52.3,46.6,29.90,NNE,20,0.0,2.0,81,0.00,OVC,,0.29,WeatherDisplay:10.37,2013-03-23 22:20:00,
2013-03-23 18:30:00,52.5,47.2,29.90,NNE,20,0.0,1.0,82,0.00,OVC,,0.29,WeatherDisplay:10.37,2013-03-23 22:30:00,
2013-03-23 18:40:00,52.6,46.6,29.88,NNE,20,2.0,4.0,80,0.00,OVC,,0.29,WeatherDisplay:10.37,2013-03-23 22:40:00,
2013-03-23 18:50:00,52.3,47.0,29.87,NNE,32,3.0,6.0,82,0.00,OVC,,0.29,WeatherDisplay:10.37,2013-03-23 22:50:00,
2013-03-23 19:00:00,52.4,47.7,29.87,NE,41,0.0,5.0,84,0.00,OVC,,0.29,WeatherDisplay:10.37,2013-03-23 23:00:00,
2013-03-23 19:10:00,52.6,47.6,29.86,NE,41,0.0,2.0,83,0.00,OVC,,0.29,WeatherDisplay:10.37,2013-03-23 23:10:00,
2013-03-23 19:20:00,52.6,47.3,29.85,NE,41,0.0,2.0,82,0.00,OVC,,0.29,WeatherDisplay:10.37,2013-03-23 23:20:00,
2013-03-23 19:30:00,52.5,47.2,29.85,East,89,1.0,4.0,82,0.00,OVC,,0.29,WeatherDisplay:10.37,2013-03-23 23:30:00,
2013-03-23 19:40:00,52.4,47.1,29.85,ESE,113,0.0,4.0,82,0.00,-DZ,,0.29,WeatherDisplay:10.37,2013-03-23 23:40:00,
2013-03-23 19:50:00,52.1,47.1,29.84,ESE,113,0.0,1.0,83,0.00,OVC,,0.29,WeatherDisplay:10.37,2013-03-23 23:50:00,
2013-03-23 20:00:00,51.5,46.8,29.84,ESE,113,0.0,0.0,84,0.00,OVC,,0.29,WeatherDisplay:10.37,2013-03-24 00:00:00,
2013-03-23 20:10:00,50.9,46.9,29.84,ESE,113,0.0,0.0,86,0.00,OVC,,0.29,WeatherDisplay:10.37,2013-03-24 00:10:00,
2013-03-23 20:20:00,50.5,46.8,29.84,ESE,113,0.0,0.0,87,0.00,OVC,,0.29,WeatherDisplay:10.37,2013-03-24 00:20:00,
2013-03-23 20:30:00,50.1,46.7,29.85,ESE,113,0.0,0.0,88,0.00,OVC,,0.29,WeatherDisplay:10.37,2013-03-24 00:30:00,
2013-03-23 20:40:00,50.0,46.9,29.85,ESE,113,0.0,0.0,89,0.00,OVC,,0.29,WeatherDisplay:10.37,2013-03-24 00:40:00,
2013-03-23 20:50:00,49.8,47.0,29.85,ESE,113,0.0,0.0,90,0.00,OVC,,0.29,WeatherDisplay:10.37,2013-03-24 00:50:00,
2013-03-23 21:00:00,49.9,47.4,29.84,ESE,113,0.0,1.0,91,0.00,OVC,,0.29,WeatherDisplay:10.37,2013-03-24 01:00:00,
2013-03-23 21:10:00,49.8,47.3,29.84,ESE,113,0.0,0.0,91,0.00,OVC,,0.29,WeatherDisplay:10.37,2013-03-24 01:10:00,
2013-03-23 21:20:00,49.7,47.2,29.82,ESE,112,2.0,4.0,91,0.00,OVC,,0.29,WeatherDisplay:10.37,2013-03-24 01:20:00,
2013-03-23 21:30:00,49.7,47.2,29.81,ESE,110,0.0,5.0,91,0.00,OVC,,0.29,WeatherDisplay:10.37,2013-03-24 01:30:00,
2013-03-23 21:40:00,49.9,47.1,29.81,ESE,110,0.0,2.0,90,0.00,OVC,,0.29,WeatherDisplay:10.37,2013-03-24 01:40:00,
2013-03-23 21:50:00,50.2,46.7,29.82,ESE,110,1.0,4.0,88,0.00,OVC,,0.29,WeatherDisplay:10.37,2013-03-24 01:50:00,
2013-03-23 22:00:00,50.6,46.6,29.80,ESE,110,1.0,4.0,86,0.00,OVC,,0.29,WeatherDisplay:10.37,2013-03-24 02:00:00,
2013-03-23 22:10:00,50.8,46.8,29.79,ESE,110,0.0,0.0,86,0.00,OVC,,0.29,WeatherDisplay:10.37,2013-03-24 02:10:00,
2013-03-23 22:20:00,51.0,47.0,29.81,SSW,200,1.0,5.0,86,0.00,OVC,,0.29,WeatherDisplay:10.37,2013-03-24 02:20:00,
2013-03-23 22:30:00,51.1,46.7,29.82,SSW,194,1.0,4.0,85,0.00,OVC,,0.29,WeatherDisplay:10.37,2013-03-24 02:30:00,
2013-03-23 22:40:00,51.2,46.8,29.81,SSW,194,0.0,3.0,85,0.00,OVC,,0.29,WeatherDisplay:10.37,2013-03-24 02:40:00,
2013-03-23 22:50:00,51.3,46.9,29.78,SSW,194,0.0,4.0,85,0.00,OVC,,0.29,WeatherDisplay:10.37,2013-03-24 02:50:00,
2013-03-23 23:00:00,51.0,47.0,29.77,SSW,194,0.0,3.0,86,0.00,OVC,,0.29,WeatherDisplay:10.37,2013-03-24 03:00:00,
2013-03-23 23:10:00,50.8,47.3,29.77,SSW,194,0.0,2.0,88,0.00,-RA,,0.29,WeatherDisplay:10.37,2013-03-24 03:10:00,
2013-03-23 23:20:00,50.5,47.4,29.77,SSW,194,0.0,2.0,89,0.00,-RA,,0.29,WeatherDisplay:10.37,2013-03-24 03:20:00,
2013-03-23 23:30:00,50.3,47.2,29.76,SSW,194,0.0,2.0,89,0.00,-RA,,0.29,WeatherDisplay:10.37,2013-03-24 03:30:00,
2013-03-23 23:40:00,50.2,47.1,29.78,SSW,194,0.0,1.0,89,0.00,OVC,,0.29,WeatherDisplay:10.37,2013-03-24 03:40:00,
2013-03-23 23:50:00,50.4,47.2,29.78,SSW,194,0.0,3.0,89,0.00,OVC,,0.29,WeatherDisplay:10.37,2013-03-24 03:50:00,